Home   Weather   Alice Springs   Past weeks

Flag for Australia Past Weather in Alice Springs, Northern Territory, Australia — Yesterday and Last 2 Weeks

Now
73 °F

Rain showers. Overcast.


Feels Like: 74 °F
Forecast: 74 / 89 °F
Wind: 9 mph from North

Location: Alice Springs Aerodrome

Current Time: Dec 4, 2016 at 3:15:50 am

Latest Report: Dec 4, 2016 at 2:30 am


Visibility: N/A

Pressure: 29.95 "Hg (28.01 "Hg at 581m altitude)

Humidity: 78%

Dew Point: 66 °F

Location of Alice SpringsLocation

Past Weather in Alice Springs — Graph

°F

Alice Springs Temperature Yesterday

Maximum temperature yesterday: 102 °F (at 4:00 pm)
Minimum temperature yesterday: 73 °F (at 9:34 pm)
Average temperature yesterday: 89 °F

High & Low Weather Summary for the Past Weeks

 TemperatureHumidityPressure
High106 °F (Dec 2, 12:20 pm)94% (Nov 24, 2:30 am)30.09 "Hg (Nov 24, 2:30 am)
Low54 °F (Nov 26, 5:30 am)2% (Nov 29, 5:00 pm)29.71 "Hg (Nov 21, 2:26 pm)
Average82 °F27%29.91 "Hg
* Reported Nov 19 1:30 am — Dec 4 2:00 am, Alice Springs, Weather by CustomWeather, © 2016

Note: Actual official high and low records may vary slightly from our data, if they occured in-between our weather recording intervals... More about our weather records

Advertising

Alice Springs Weather History for the Previous 24 Hours

Scroll right to see more
 ConditionsComfort  
Time TempWeatherWind HumidityBarometerVisibility
2:00 am
Sun, Dec 4
73 °FOvercast.9 mph83%29.92 "HgN/A
1:30 am73 °FPassing clouds.8 mph89%29.92 "HgN/A
1:00 am73 °FPassing clouds.1 mph89%29.92 "HgN/A
12:30 am73 °FPassing clouds.5 mph89%29.92 "HgN/A
11:30 pm
Sat, Dec 3
73 °FClear.5 mph89%29.95 "HgN/A
11:00 pm73 °FPassing clouds.8 mph83%29.95 "HgN/A
10:30 pm73 °FClear.9 mph89%29.95 "HgN/A
9:34 pm73 °FRain showers. Partly cloudy.10 mph83%29.98 "Hg3 mi
8:30 pm75 °FRain showers. Passing clouds.16 mph74%29.95 "Hg6 mi
7:30 pm86 °FSunny.16 mph40%29.86 "HgN/A
6:30 pm81 °FSprinkles. More clouds than sun.17 mph62%29.83 "HgN/A
6:24 pm88 °FSprinkles. More clouds than sun.15 mph38%29.83 "HgN/A
5:30 pm100 °FScattered clouds.12 mph16%29.77 "HgN/A
5:00 pm100 °FSunny.10 mph16%29.77 "HgN/A
4:30 pm100 °FScattered clouds.10 mph15%29.77 "HgN/A
4:00 pm102 °FSunny.13 mph14%29.80 "HgN/A
3:30 pm100 °FScattered clouds.13 mph14%29.80 "HgN/A
3:00 pm100 °FScattered clouds.8 mph18%29.83 "HgN/A
2:30 pm100 °FSunny.7 mph16%29.83 "HgN/A
2:00 pm99 °FSunny.7 mph16%29.83 "HgN/A
1:30 pm100 °FSunny.7 mph14%29.86 "HgN/A
12:30 pm95 °FSunny.9 mph19%29.89 "HgN/A
12:00 pm95 °FSunny.8 mph20%29.92 "HgN/A
11:30 am95 °FSunny.6 mph19%29.92 "HgN/A
10:30 am93 °FSunny.7 mph21%29.92 "HgN/A
10:00 am91 °FSunny.14 mph24%29.92 "HgN/A
9:30 am91 °FSunny.12 mph23%29.92 "HgN/A
8:30 am91 °FSunny.17 mph24%29.95 "HgN/A
8:00 am90 °FSunny.15 mph26%29.95 "HgN/A
7:30 am86 °FSunny.12 mph29%29.95 "HgN/A
7:00 am84 °FScattered clouds.17 mph31%29.92 "HgN/A
6:30 am86 °FSunny.12 mph25%29.92 "HgN/A
5:30 am81 °FClear.7 mph32%29.86 "HgN/A
5:00 am82 °FClear.7 mph30%29.83 "HgN/A
4:30 am84 °FClear.7 mph29%29.83 "HgN/A
4:00 am86 °FClear.8 mph25%29.86 "HgN/A
3:30 am86 °FPassing clouds.8 mph25%29.86 "HgN/A
Weather by CustomWeather, © 2016

See weather overviewHow to use our weather pages